sat.trackr.live / text

‹ back to catalog

STARLINK-2603

NORAD 48375 · 2021-038Y

PAYLOAD ACTIVE UNKNOWN

§ Identity

Operator
Country
US
Launch date
2021-05-04
Launch site
AFETR
Launch vehicle
Mass (kg)
RCS (m²)

Purposes: comms

External: N2YO · Heavens-Above · Gunter

§ Orbital elements

Epoch: 2026-05-25T00:01:30.098784Z

Period
94.01 min
Inclination
53.1595°
Eccentricity
0.0001109
Mean motion
15.31715889 rev/d
Perigee alt
469.9 km
Apogee alt
471.5 km
Semi-major
6,848.8 km
B*
2.5201e-4
RAAN
352.8812°
Arg perigee
88.7619°
Mean anomaly
271.3510°
Rev number
27,891

§ Raw data

STARLINK-26031 48375U 21038Y   26145.00104281  .00007467  00000+0  25201-3 0  99912 48375  53.1595 352.8812 0001109  88.7619 271.3510 15.31715889278910

JSON: /api/v1/satellites/48375 · /tle

For live sub-satellite position, see the globe view (requires WebGL).

§ Visibility from observer

Set your observer location to see the next 7 days of passes ≥ 10°. The values pass through the URL so the page stays shareable.

No JS? Fill the form by hand. The geolocation button needs JavaScript.